Hourly Data Report for October 05, 2015

All times are specified in Local Standard Time (LST). Add 1 hour to adjust for Daylight Saving Time where and when it is observed.

SAINT JOHN A
NEW BRUNSWICK

45°18'58.000" N
65°53'24.000" W
108.80 m
8104901
71609
YSJ

Download Data

Hourly Data (October 2015)
Hourly Data Report for October 5, 2015
Temp Definition
°C
Dew Point Temp Definition
°C
Rel Hum Definition
%
Wind Dir Definition
10's deg

Wind Spd Definition
km/h
Visibility Definition
km
Stn Press Definition
kPa
Hmdx Definition


Wind Chill Definition


Weather Definition


TIME
00:00 Legend Double Dagger 1.4 1.0 97 1 4 24.1 101.44     LegendNANA
01:00 Legend Double Dagger 1.9 1.6 98 6 5 24.1 101.44     LegendNANA
02:00 Legend Double Dagger 2.3 2.0 98 5 3 24.1 101.47     Clear
03:00 Legend Double Dagger 2.2 2.2 100 36 3 24.1 101.46     LegendNANA
04:00 Legend Double Dagger 2.6 2.6 100 5 7 6.4 101.40     Fog
05:00 Legend Double Dagger 2.5 2.5 100 7 5 24.1 101.34     Mainly Clear
06:00 Legend Double Dagger 0.6 0.6 100 5 7 24.1 101.31     LegendNANA
07:00 Legend Double Dagger 1.7 1.7 100 6 4 8.1 101.29     LegendNANA
08:00 Legend Double Dagger 7.2 7.2 100 36 1 24.1 101.27     Mainly Clear
09:00 Legend Double Dagger 11.7 9.5 86 13 8 24.1 101.23     LegendNANA
10:00 Legend Double Dagger 12.0 8.3 78 15 12 22.5 101.24     LegendNANA
11:00 Legend Double Dagger 14.2 7.6 64 12 8 24.1 101.19     Mostly Cloudy
12:00 Legend Double Dagger 15.4 6.8 56 13 7 24.1 101.08     LegendNANA
13:00 Legend Double Dagger 16.4 5.8 49 17 8 24.1 101.03     LegendNANA
14:00 Legend Double Dagger 15.7 4.8 48 13 11 24.1 100.96     Mostly Cloudy
15:00 Legend Double Dagger 15.8 7.4 57 15 4 24.1 100.89     LegendNANA
16:00 Legend Double Dagger 16.2 8.3 59 20 5 24.1 100.82     LegendNANA
17:00 Legend Double Dagger 15.3 8.6 64 29 7 24.1 100.78     Mostly Cloudy
18:00 Legend Double Dagger 13.3 8.6 73 15 4 24.1 100.77     LegendNANA
19:00 Legend Double Dagger 10.8 9.2 90 24 5 24.1 100.74     LegendNANA
20:00 Legend Double Dagger 9.4 8.5 94 21 3 24.1 100.73     Mostly Cloudy
21:00 Legend Double Dagger 8.5 7.9 96 3 3 24.1 100.73     LegendNANA
22:00 Legend Double Dagger 8.1 7.7 97 34 5 24.1 100.67     LegendNANA
23:00 Legend Double Dagger 9.0 8.4 96 7 4 24.1 100.60     Mostly Cloudy

Notes on Data Quality.

Legend

  • E = Estimated
  • M = Missing
  • NA = Not Available
  • ‡ = Partner data that is not subject to review by the National Climate Archives
Date modified: